Regional Weather Roundup
Issued by NWS Newport/Morehead, NC

Home | Current Version | Previous Version | Text Only | Print | Product List | Glossary On
Versions: 1 2 3 4 5 6 7 8 9 10 11 12 13 14 15 16 17 18 19 20 21 22 23 24 25 26 27 28 29 30 31 32 33 34 35 36 37 38 39 40 41 42 43 44 45 46 47 48 49 50
000
ASUS42 KMHX 251913
RWRMHX
WEATHER ROUNDUP FOR EASTERN NORTH CAROLINA
NATIONAL WEATHER SERVICE NEWPORT/MOREHEAD CITY NC
300 PM EDT TUE APR 25 2017

NOTE: "FAIR" INDICATES FEW OR NO CLOUDS BELOW 12,000 FEET
WITH NO SIGNIFICANT WEATHER AND/OR OBSTRUCTIONS TO VISIBILITY

NCZ015>017-031-032-045>047-102-103-252000-
NORTH COAST

CITY           SKY/WX    TMP DP  RH WIND       PRES   REMARKS
EDENTON        MOSUNNY   73  59  60 CALM      29.62F
ELIZABETH CITY CLOUDY    67  66  97 E7        29.62F
KITTY HAWK     CLOUDY    65  65 100 CALM      29.62S
MANTEO         DRIZZLE   66  64  92 SW8       29.64S

$$

NCZ045>047-081-094-103-104-252000-
CENTRAL COAST

CITY           SKY/WX    TMP DP  RH WIND       PRES   REMARKS
FRISCO         CLOUDY    70  62  76 VRB3      29.63F

$$

NCZ095-097-098-100-101-252000-
SOUTHERN COAST

CITY           SKY/WX    TMP DP  RH WIND       PRES   REMARKS
BEAUFORT       SUNNY     71  60  68 S13       29.63S
CEDAR ISLAND   NOT AVBL
JACKSONVILLE   NOT AVBL
PINEY ISLAND     N/A    N/A N/A N/A SE13      29.62R
WILMINGTON     MOSUNNY   73  59  61 W10       29.62S


$$

NCZ011>013-027>030-043-044-078>080-089-090>093-098-252000-
COASTAL PLAIN

CITY           SKY/WX    TMP DP  RH WIND       PRES   REMARKS
AHOSKIE          N/A     73  60  63 E5        29.61F
CLINTON        SUNNY     72  61  69 W12       29.63S
ELIZABETHTOWN  CLOUDY    69  61  75 S3        29.64S
GOLDSBORO      SUNNY     75  59  57 W5        29.59F
GREENVILLE     PTSUNNY   77  59  53 NE6       29.64S
HAVELOCK       NOT AVBL
KENANSVILLE    LGT RAIN  64  63  94 CALM      29.62R
KINSTON        PTSUNNY   75  59  57 CALM      29.61S
NEW BERN       TSTM      65  63  93 SW3       29.62R
RICHLANDS      MOSUNNY   76  59  55 VRB3      29.60F
ROCKY MOUNT    PTSUNNY   73  59  61 SW5       29.61F
WASHINGTON     PTSUNNY   73  60  65 E5        29.60F
WHITEVILLE     CLOUDY    67  60  76 SW6       29.66R

$$

AMZ130-135-150-152-154-156-158-170-250-252-270-ANZ085-086-088-633-658-670-252000-
MARINE OBSERVATIONS

STATION/POSITION TIME  TEMP    WIND        PRES    WAVE   SWELL
                       AIR SEA DIR/SP/G            HT/PER HT/PER
                 (UTC) (F)     (DEG/KT/KT) (MB)    (FT/S) (FT/S)
CHESAPEAKE LIGHT NOT AVBL
64 E VA BEACH    1850   61 55  110/ 14/ 16 1003.4   11/11  11/11
DUCK             1842   61 59   80/ 11/ 12 1002.4
2 E DUCK         1900      59                N/A     7/10   3/11
OREGON INLET     1842   63 64   40/  5/  6 1003.2
13E OREGON INLT  1848      58                N/A     7/12   7/12
HATTERAS CG      1842   66 67   70/  3/  6 1003.1
DIAMOND BUOY     1850   69 78  150/  2/  4 1003.6    9/11  10/11
CAPE LOOKOUT     1900   70     220/  8/ 10 1003.2
BEAUFORT LAB     1842   69 66  200/ 10/ 15 1002.5
30 SE NEW RVR IN 1808   67     250/ 12/ 17 1003.8
30 SE NEW RVR IN 1843      71                N/A     7/11   3/11
27 SE WRIGHTSVLE 1808   67 72  230/ 14/ 21 1003.0
5 SE WRIGHTSVLE  1808   69 70  240/ 10/ 14 1003.3
225 S CAPE HAT   1850   74 75  220/ 17/ 21 1006.9    9/ 9   7/ 9
41 SE CHARLESTON 1850   66 73  270/ 14/ 17 1005.9    6/10   5/10

$$




USA.gov is the U.S. government's official web portal to all federal, state and local government web resources and services.